TimeGMT,TemperatureF,Dew PointF,Humidity,Sea Level PressureIn,VisibilityMPH,Wind Direction,Wind SpeedMPH,Gust SpeedMPH,PrecipitationIn,Events,Conditions,WindDirDegrees,DateUTC
12:00 AM,46,45,96,29.65,1,ESE,8.9,,,Fog,Patches of Fog,110,2012-12-20 00:00:00
12:00 AM,44.6,44.6,100,29.62,0.9,ESE,9.2,-,N/A,Fog,Shallow Fog,110,2012-12-20 00:00:00
12:30 AM,46.4,46.4,100,29.62,2.2,ESE,12.7,-,N/A,,Mostly Cloudy,120,2012-12-20 00:30:00
1:00 AM,46.4,46.4,100,29.62,3.7,SE,12.7,-,N/A,,Mostly Cloudy,130,2012-12-20 01:00:00
1:30 AM,46.4,46.4,100,29.59,3.7,SE,11.5,-,N/A,,Mostly Cloudy,130,2012-12-20 01:30:00
2:00 AM,46.4,46.4,100,29.59,5.0,SE,13.8,-,N/A,,Mostly Cloudy,140,2012-12-20 02:00:00
2:30 AM,46.4,46.4,100,29.59,5.0,SE,10.4,-,N/A,,Mostly Cloudy,130,2012-12-20 02:30:00
3:00 AM,46.4,46.4,100,29.56,5.0,SE,8.1,-,N/A,,Mostly Cloudy,130,2012-12-20 03:00:00
3:30 AM,46.4,46.4,100,29.56,5.0,ESE,9.2,-,N/A,,Mostly Cloudy,120,2012-12-20 03:30:00
4:00 AM,46.4,46.4,100,29.53,6.2,ESE,8.1,-,N/A,,Mostly Cloudy,120,2012-12-20 04:00:00
4:30 AM,46.4,46.4,100,29.53,5.0,ESE,8.1,-,N/A,,Mostly Cloudy,110,2012-12-20 04:30:00
5:00 AM,46.4,46.4,100,29.50,1.2,East,5.8,-,N/A,,Mostly Cloudy,90,2012-12-20 05:00:00
5:30 AM,46.4,46.4,100,29.50,0.7,East,4.6,-,N/A,,Mostly Cloudy,90,2012-12-20 05:30:00
6:00 AM,46,46,100,29.51,0,NE,6.7,,,Fog,Partial Fog,50,2012-12-20 06:00:00
6:00 AM,46.4,46.4,100,29.50,0.5,NE,5.8,-,N/A,Fog,Fog,50,2012-12-20 06:00:00
6:30 AM,46.4,46.4,100,29.47,0.7,NE,6.9,-,N/A,,Light Drizzle,50,2012-12-20 06:30:00
7:00 AM,46.4,46.4,100,29.47,1.1,NE,5.8,-,N/A,,Drizzle,40,2012-12-20 07:00:00
7:30 AM,46.4,46.4,100,29.47,1.6,NNE,6.9,-,N/A,,Drizzle,20,2012-12-20 07:30:00
8:00 AM,46.4,46.4,100,29.44,2.2,North,8.1,-,N/A,,Drizzle,10,2012-12-20 08:00:00
8:30 AM,46.4,44.6,93,29.44,5.0,NE,8.1,-,N/A,Rain,Light Rain,50,2012-12-20 08:30:00
9:00 AM,44.6,44.6,100,29.44,5.0,NNE,9.2,-,N/A,Rain,Light Rain,30,2012-12-20 09:00:00
9:30 AM,44.6,44.6,100,29.44,4.3,NNE,8.1,-,N/A,Rain,Light Rain,30,2012-12-20 09:30:00
10:00 AM,44.6,44.6,100,29.44,4.3,North,8.1,-,N/A,Rain,Light Rain,10,2012-12-20 10:00:00
10:30 AM,44.6,44.6,100,29.44,3.7,North,8.1,-,N/A,Rain,Light Rain,10,2012-12-20 10:30:00
11:00 AM,44.6,44.6,100,29.44,5.0,North,8.1,-,N/A,Rain,Light Rain,360,2012-12-20 11:00:00
11:30 AM,44.6,44.6,100,29.44,5.6,North,6.9,-,N/A,Rain,Light Rain,350,2012-12-20 11:30:00
12:00 PM,45,43,92,29.45,7,NNW,8.9,,,Rain,Light Rain,340,2012-12-20 12:00:00
12:00 PM,44.6,42.8,93,29.42,6.2,NNW,9.2,-,N/A,,Mostly Cloudy,340,2012-12-20 12:00:00
12:30 PM,44.6,42.8,93,29.42,6.2,NW,9.2,-,N/A,,Mostly Cloudy,320,2012-12-20 12:30:00
1:00 PM,44.6,42.8,93,29.42,6.2,NW,9.2,-,N/A,,Mostly Cloudy,320,2012-12-20 13:00:00
1:30 PM,44.6,42.8,93,29.42,6.2,NW,10.4,-,N/A,,Mostly Cloudy,320,2012-12-20 13:30:00
2:00 PM,44.6,42.8,93,29.42,6.2,NW,9.2,-,N/A,,Mostly Cloudy,310,2012-12-20 14:00:00
2:30 PM,44.6,42.8,93,29.44,6.2,WNW,10.4,-,N/A,,Mostly Cloudy,290,2012-12-20 14:30:00
3:00 PM,44.6,42.8,93,29.42,6.2,WNW,8.1,-,N/A,,Mostly Cloudy,300,2012-12-20 15:00:00
3:30 PM,44.6,42.8,93,29.44,6.2,WNW,8.1,-,N/A,,Mostly Cloudy,290,2012-12-20 15:30:00
4:00 PM,44.6,42.8,93,29.44,6.2,West,9.2,-,N/A,,Mostly Cloudy,270,2012-12-20 16:00:00
4:30 PM,42.8,42.8,100,29.44,6.2,West,9.2,-,N/A,,Mostly Cloudy,270,2012-12-20 16:30:00
5:00 PM,42.8,42.8,100,29.44,6.2,West,8.1,-,N/A,,Mostly Cloudy,280,2012-12-20 17:00:00
5:30 PM,42.8,42.8,100,29.47,6.2,West,8.1,-,N/A,,Mostly Cloudy,270,2012-12-20 17:30:00
6:00 PM,44,42,92,29.49,16,West,11.2,,,,Partly Cloudy,270,2012-12-20 18:00:00
6:00 PM,42.8,42.8,100,29.47,6.2,West,11.5,-,N/A,,Mostly Cloudy,270,2012-12-20 18:00:00
6:30 PM,42.8,42.8,100,29.47,6.2,West,10.4,-,N/A,,Mostly Cloudy,270,2012-12-20 18:30:00
7:00 PM,42.8,42.8,100,29.50,6.2,West,10.4,-,N/A,,Mostly Cloudy,270,2012-12-20 19:00:00
7:30 PM,42.8,42.8,100,29.50,6.2,West,10.4,-,N/A,,Mostly Cloudy,270,2012-12-20 19:30:00
8:00 PM,42.8,42.8,100,29.50,6.2,West,9.2,-,N/A,,Mostly Cloudy,270,2012-12-20 20:00:00
8:30 PM,42.8,42.8,100,29.53,6.2,West,9.2,-,N/A,,Mostly Cloudy,270,2012-12-20 20:30:00
9:00 PM,44.6,42.8,93,29.53,5.6,WNW,8.1,-,N/A,,Mostly Cloudy,290,2012-12-20 21:00:00
9:30 PM,42.8,42.8,100,29.53,3.7,WNW,6.9,-,N/A,,Mostly Cloudy,290,2012-12-20 21:30:00
10:00 PM,42.8,42.8,100,29.53,3.7,West,10.4,-,N/A,,Mostly Cloudy,270,2012-12-20 22:00:00
10:30 PM,42.8,42.8,100,29.56,3.1,West,10.4,-,N/A,,Mostly Cloudy,260,2012-12-20 22:30:00
11:00 PM,42.8,42.8,100,29.56,3.1,West,10.4,-,N/A,Rain,Light Rain,270,2012-12-20 23:00:00
11:30 PM,42.8,42.8,100,29.56,3.1,West,9.2,-,N/A,Rain,Light Rain,270,2012-12-20 23:30:00